N179LJ SKCG-SVMI

Flight info

Callsign N179LJ
Flight time N/A
Altitude 23000
Route CTG2D CTG DCT BAQ A552 UTKIV/N0472F240 A552 MAR/N0478F410 UW5 PBL ALDAK1
Aircraft C700/M-SBDGHM1RWXY/LB2

Departure

Time N/A
Airport Rafael Nuñez International Airport (SKCG)

Arrival

Time 2025-10-10 00:37
Airport Maiquetía Simón Bolívar International Airport (SVMI)
Time Latitude Longitude Altitude Speed Heading
2025-10-09 23:39 10.75272 -73.05233 22920 ft 422 kts 92°
2025-10-09 23:39 10.75109 -72.99280 22911 ft 422 kts 92°
2025-10-09 23:40 10.74943 -72.93300 22913 ft 424 kts 92°
2025-10-09 23:40 10.74776 -72.87308 22910 ft 422 kts 92°
2025-10-09 23:41 10.74610 -72.81389 22910 ft 423 kts 92°
2025-10-09 23:41 10.74526 -72.78355 22914 ft 425 kts 92°
2025-10-09 23:42 10.74241 -72.69427 22914 ft 421 kts 95°
2025-10-09 23:42 10.73362 -72.63519 22909 ft 423 kts 98°
2025-10-09 23:43 10.72526 -72.57602 22908 ft 423 kts 99°
2025-10-09 23:43 10.71637 -72.51694 22903 ft 423 kts 98°
2025-10-09 23:44 10.70775 -72.45766 22901 ft 423 kts 98°
2025-10-09 23:44 10.70334 -72.42805 22898 ft 423 kts 99°
2025-10-09 23:45 10.69516 -72.37268 22893 ft 423 kts 98°
2025-10-09 23:45 10.68647 -72.31377 23023 ft 421 kts 98°
2025-10-09 23:46 10.67329 -72.22476 23327 ft 424 kts 98°
2025-10-09 23:46 10.66294 -72.16554 23511 ft 426 kts 101°
2025-10-09 23:47 10.65236 -72.10632 23703 ft 426 kts 100°
2025-10-09 23:47 10.64135 -72.04562 23917 ft 443 kts 101°
2025-10-09 23:48 10.63023 -71.98407 24140 ft 444 kts 101°
2025-10-09 23:48 10.61901 -71.92207 24364 ft 446 kts 101°
2025-10-09 23:49 10.61338 -71.89111 24473 ft 445 kts 101°
2025-10-09 23:49 10.60213 -71.82907 24696 ft 447 kts 101°
2025-10-09 23:50 10.58511 -71.73537 24866 ft 450 kts 101°
2025-10-09 23:50 10.57165 -71.67351 24859 ft 449 kts 104°
2025-10-09 23:51 10.55705 -71.61208 24869 ft 451 kts 103°
2025-10-09 23:51 10.54247 -71.55027 24861 ft 448 kts 103°
2025-10-09 23:52 10.52786 -71.48872 24866 ft 448 kts 103°
2025-10-09 23:52 10.52059 -71.45805 24859 ft 449 kts 103°
2025-10-09 23:53 10.50592 -71.39624 24867 ft 449 kts 103°
2025-10-09 23:53 10.49124 -71.33439 24870 ft 450 kts 103°
2025-10-09 23:54 10.46920 -71.24178 24876 ft 448 kts 103°
2025-10-09 23:54 10.45458 -71.18035 24879 ft 447 kts 103°
2025-10-09 23:55 10.43941 -71.11898 24880 ft 450 kts 105°
2025-10-09 23:55 10.43137 -71.08826 24887 ft 450 kts 104°
2025-10-09 23:56 10.41598 -71.02688 24892 ft 447 kts 104°
2025-10-09 23:56 10.40041 -70.96576 24903 ft 448 kts 104°
2025-10-09 23:57 10.38482 -70.90416 24901 ft 453 kts 104°
2025-10-09 23:57 10.36901 -70.84196 24917 ft 456 kts 104°
2025-10-09 23:58 10.34540 -70.74905 24925 ft 453 kts 104°
2025-10-09 23:59 10.32190 -70.65596 24934 ft 455 kts 104°
2025-10-09 23:59 10.31439 -70.62475 24934 ft 456 kts 103°
2025-10-09 23:59 10.30674 -70.59352 24939 ft 456 kts 104°
2025-10-10 00:00 10.29126 -70.53143 24938 ft 453 kts 104°
2025-10-10 00:00 10.27598 -70.46921 24939 ft 454 kts 104°
2025-10-10 00:01 10.26053 -70.40691 24939 ft 455 kts 104°
2025-10-10 00:01 10.24509 -70.34448 24934 ft 456 kts 104°
2025-10-10 00:02 10.22198 -70.25121 24932 ft 453 kts 104°
2025-10-10 00:02 10.20653 -70.18892 24932 ft 456 kts 104°
2025-10-10 00:03 10.19112 -70.12705 24929 ft 453 kts 104°
2025-10-10 00:03 10.18342 -70.09605 24925 ft 454 kts 104°
2025-10-10 00:04 10.16417 -70.00167 24919 ft 455 kts 100°
2025-10-10 00:04 10.15224 -69.93856 24924 ft 455 kts 101°
2025-10-10 00:05 10.14057 -69.87542 24927 ft 455 kts 100°
2025-10-10 00:05 10.12874 -69.81224 24927 ft 456 kts 100°
2025-10-10 00:06 10.11110 -69.71765 24938 ft 454 kts 101°
2025-10-10 00:06 10.10520 -69.68620 24938 ft 454 kts 101°
2025-10-10 00:07 10.09344 -69.62325 24941 ft 454 kts 101°
2025-10-10 00:07 10.08173 -69.56079 24947 ft 453 kts 101°
2025-10-10 00:08 10.06998 -69.49811 24949 ft 452 kts 101°
2025-10-10 00:08 10.06012 -69.44559 24956 ft 452 kts 101°
2025-10-10 00:09 10.04756 -69.37877 24953 ft 451 kts 101°
2025-10-10 00:09 10.04347 -69.31563 24954 ft 451 kts 88°
2025-10-10 00:10 10.04599 -69.22010 24955 ft 452 kts 88°
2025-10-10 00:10 10.04686 -69.18816 24953 ft 453 kts 88°
2025-10-10 00:11 10.04853 -69.12456 24955 ft 454 kts 89°
2025-10-10 00:11 10.05833 -69.06161 24947 ft 453 kts 73°
2025-10-10 00:12 10.08285 -69.00258 24955 ft 454 kts 67°
2025-10-10 00:12 10.10832 -68.94389 24959 ft 455 kts 67°
2025-10-10 00:13 10.13398 -68.88512 24963 ft 456 kts 67°
2025-10-10 00:14 10.17228 -68.79711 24961 ft 453 kts 67°
2025-10-10 00:14 10.18499 -68.76788 24956 ft 452 kts 67°
2025-10-10 00:14 10.21045 -68.70934 24955 ft 454 kts 67°
2025-10-10 00:15 10.23599 -68.65063 24956 ft 454 kts 67°
2025-10-10 00:15 10.26148 -68.59190 24956 ft 456 kts 67°
2025-10-10 00:16 10.28698 -68.53321 24950 ft 452 kts 67°
2025-10-10 00:16 10.31240 -68.47460 24949 ft 455 kts 67°
2025-10-10 00:17 10.33775 -68.41616 24943 ft 454 kts 67°
2025-10-10 00:17 10.36320 -68.35745 24724 ft 458 kts 67°
2025-10-10 00:18 10.38853 -68.29902 23550 ft 444 kts 67°
2025-10-10 00:18 10.41305 -68.24233 22340 ft 434 kts 67°
2025-10-10 00:19 10.43725 -68.18643 21197 ft 430 kts 67°
2025-10-10 00:19 10.46105 -68.13135 20075 ft 422 kts 67°
2025-10-10 00:20 10.48392 -68.07701 18958 ft 414 kts 72°
2025-10-10 00:20 10.49752 -68.02086 17849 ft 405 kts 77°
2025-10-10 00:21 10.50434 -67.99322 17325 ft 400 kts 77°
2025-10-10 00:21 10.51220 -67.96031 16751 ft 400 kts 77°
2025-10-10 00:22 10.53139 -67.87883 15193 ft 390 kts 77°
2025-10-10 00:22 10.54395 -67.82563 14173 ft 385 kts 77°
2025-10-10 00:23 10.55639 -67.77294 13127 ft 380 kts 77°
2025-10-10 00:23 10.56862 -67.72119 12134 ft 374 kts 77°
2025-10-10 00:24 10.58043 -67.67037 11158 ft 370 kts 79°
2025-10-10 00:24 10.58240 -67.64439 10673 ft 368 kts 89°
2025-10-10 00:25 10.58423 -67.59290 9707 ft 353 kts 87°
2025-10-10 00:25 10.58579 -67.54635 8819 ft 308 kts 88°
2025-10-10 00:26 10.58790 -67.48556 7692 ft 270 kts 88°
2025-10-10 00:26 10.58916 -67.44855 7003 ft 255 kts 89°
2025-10-10 00:27 10.59037 -67.41319 6358 ft 246 kts 89°
2025-10-10 00:27 10.59153 -67.37902 5728 ft 238 kts 89°
2025-10-10 00:28 10.59210 -67.36229 5416 ft 236 kts 89°
2025-10-10 00:28 10.59322 -67.32914 4804 ft 233 kts 89°
2025-10-10 00:29 10.59424 -67.29906 4225 ft 210 kts 90°
2025-10-10 00:29 10.59490 -67.27008 4042 ft 196 kts 89°
2025-10-10 00:30 10.59669 -67.22903 4044 ft 195 kts 89°
2025-10-10 00:31 10.59813 -67.18732 3478 ft 194 kts 88°
2025-10-10 00:31 10.59862 -67.17374 3237 ft 191 kts 90°
2025-10-10 00:31 10.59894 -67.16033 2987 ft 189 kts 88°
2025-10-10 00:32 10.59977 -67.13388 2521 ft 186 kts 89°
2025-10-10 00:32 10.60067 -67.10855 2083 ft 163 kts 90°
2025-10-10 00:33 10.60141 -67.08697 1674 ft 149 kts 90°
2025-10-10 00:33 10.60208 -67.06666 1288 ft 146 kts 89°
2025-10-10 00:34 10.60292 -67.03665 725 ft 128 kts 91°
2025-10-10 00:34 10.60357 -67.01948 392 ft 123 kts 92°
2025-10-10 00:35 10.60407 -67.00206 219 ft 119 kts 90°
2025-10-10 00:35 10.60449 -66.98866 171 ft 57 kts 87°
2025-10-10 00:36 10.60401 -66.98672 167 ft 12 kts 243°
2025-10-10 00:36 10.60308 -66.98845 174 ft 15 kts 245°
2025-10-10 00:37 10.60278 -66.99070 182 ft 17 kts 259°
2025-10-10 00:37 10.60197 -66.99116 190 ft 14 kts 171°
2025-10-10 00:38 10.59837 -66.99048 204 ft 12 kts 219°
2025-10-10 00:38 10.59833 -66.99094 197 ft 0 kts 268°